1491969600.01,21901,12.88,73268.8,-6.33,-23.03,-23.95,0,*52
1491969601.22,21902,12.94,73272.0,-6.31,-22.93,-23.89,0,*56
1491969602.47,21903,12.94,73268.8,-6.33,-22.97,-23.95,0,*5C
1491969603.7,21904,12.94,73276.8,-6.31,-22.87,-23.85,0,*59
1491969604.93,21905,12.94,73268.3,-6.33,-22.83,-23.79,0,*5D
1491969606.18,21906,12.94,73270.0,-6.31,-22.77,-23.69,0,*56
1491969607.4,21907,12.94,73270.5,-6.31,-22.73,-23.59,0,*50
1491969608.65,21908,12.94,73274.0,-6.33,-22.67,-23.65,0,*57
1491969609.88,21909,12.94,73274.0,-6.31,-22.63,-23.53,0,*55
1491969611.11,21910,12.94,73272.0,-6.31,-22.47,-23.43,0,*5A
1491969612.34,21911,12.94,73268.3,-6.31,-22.73,-23.59,0,*57
1491969613.59,21912,12.94,73264.8,-6.29,-22.73,-23.59,0,*5D
1491969614.84,21913,12.94,73254.5,-6.29,-22.73,-23.75,0,*52
1491969616.04,21914,12.94,73250.3,-6.31,-22.87,-23.75,0,*57
1491969617.24,21915,12.94,73254.3,-6.31,-22.87,-23.89,0,*55
1491969618.44,21916,12.94,73256.3,-6.31,-22.97,-23.89,0,*57
1491969619.67,21917,12.94,73254.5,-6.31,-22.93,-23.99,0,*53
1491969620.9,21918,12.94,73254.0,-6.31,-22.97,-23.99,0,*58
1491969622.13,21919,12.94,73258.3,-6.31,-23.09,-23.99,0,*5F
1491969623.36,21920,12.94,73252.0,-6.31,-23.09,-23.99,0,*55
1491969624.58,21921,12.94,73248.5,-6.31,-23.09,-23.99,0,*54
1491969625.79,21922,12.94,73256.3,-6.31,-22.97,-23.89,0,*50
1491969626.99,21923,12.94,73258.5,-6.31,-23.13,-23.89,0,*5C
1491969628.19,21924,12.94,73262.0,-6.31,-23.13,-23.89,0,*5B
1491969629.44,21925,12.94,73266.0,-6.33,-23.13,-23.95,0,*55
1491969630.69,21926,12.94,73264.3,-6.33,-23.13,-23.95,0,*56
1491969631.97,21927,12.94,73270.0,-6.33,-23.19,-23.95,0,*5D
1491969633.22,21928,12.94,73272.3,-6.33,-23.13,-23.95,0,*58
1491969634.42,21929,12.94,73268.3,-6.31,-23.09,-23.89,0,*5D
1491969635.7,21930,12.94,73260.3,-6.33,-23.19,-23.95,0,*5B
1491969636.92,21931,12.94,73260.0,-6.33,-23.13,-23.89,0,*5D
1491969638.17,21932,12.94,73256.3,-6.33,-23.13,-23.95,0,*53
1491969639.45,21933,12.94,73258.5,-6.33,-23.19,-23.95,0,*58
1491969640.72,21934,12.94,73258.0,-6.33,-23.03,-23.95,0,*54
1491969641.97,21935,12.94,73260.0,-6.33,-23.13,-23.95,0,*54
1491969643.25,21936,12.94,73262.8,-6.33,-23.19,-23.95,0,*5D
1491969644.53,21937,12.94,73266.3,-6.33,-23.19,-23.95,0,*5C
1491969645.78,21938,12.94,73264.3,-6.33,-23.13,-23.95,0,*59
1491969647.03,21939,12.88,73256.8,-6.35,-23.19,-23.95,0,*54
1491969648.31,21940,12.94,73264.8,-6.33,-23.19,-23.95,0,*5C
1491969649.53,21941,12.94,73266.0,-6.35,-23.13,-23.95,0,*51
1491969650.76,21942,12.94,73272.3,-6.35,-23.13,-23.95,0,*52
1491969651.99,21943,12.94,73272.0,-6.35,-23.13,-23.95,0,*53
1491969653.24,21944,12.94,73270.3,-6.35,-23.19,-23.95,0,*5E
1491969654.51,21945,12.94,73274.3,-6.37,-23.19,-23.95,0,*5D
1491969655.79,21946,12.94,73274.3,-6.37,-23.19,-23.99,0,*52
1491969657.07,21947,12.94,73264.8,-6.37,-23.19,-23.99,0,*53
1491969658.34,21948,12.94,73260.0,-6.37,-23.19,-23.99,0,*5C
1491969659.62,21949,12.94,73258.0,-6.37,-23.19,-23.99,0,*5D
1491969660.87,21950,12.94,73258.0,-6.35,-23.19,-23.95,0,*5B
1491969662.15,21951,12.94,73264.0,-6.37,-23.19,-23.99,0,*54
1491969663.42,21952,12.94,73266.5,-6.37,-23.33,-23.99,0,*5F
1491969664.67,21953,12.94,73268.5,-6.35,-23.29,-23.95,0,*5B
1491969665.92,21954,12.94,73272.5,-6.35,-23.29,-23.95,0,*5C
1491969667.2,21955,12.94,73268.8,-6.37,-23.23,-23.99,0,*59
1491969668.47,21956,12.94,73264.3,-6.37,-23.23,-23.99,0,*5A
1491969669.71,21957,12.94,73262.3,-6.37,-23.39,-23.99,0,*50
1491969670.95,21958,12.94,73262.5,-6.37,-23.39,-24.11,0,*58
1491969672.2,21959,12.94,73264.0,-6.41,-23.39,-24.15,0,*5C
1491969673.42,21960,12.94,73268.5,-6.39,-23.39,-24.15,0,*59
1491969674.64,21961,12.94,73272.3,-6.39,-23.39,-24.15,0,*58
1491969675.89,21962,12.94,73268.5,-6.41,-23.39,-24.15,0,*54
1491969677.11,21963,12.94,73270.8,-6.39,-23.39,-24.15,0,*5A
1491969678.34,21964,12.94,73266.0,-6.39,-23.43,-24.15,0,*50
1491969679.57,21965,12.94,73262.8,-6.41,-23.43,-24.05,0,*5F
1491969680.82,21966,12.94,73266.3,-6.41,-23.39,-23.99,0,*53
1491969682.08,21967,12.94,73266.3,-6.41,-23.43,-23.99,0,*5F
1491969683.31,21968,12.94,73266.0,-6.41,-23.43,-24.05,0,*52
1491969684.56,21969,12.94,73274.0,-6.41,-23.39,-23.99,0,*5C
1491969685.79,21970,12.94,73274.5,-6.41,-23.43,-24.05,0,*5B
1491969687.03,21971,12.94,73266.3,-6.41,-23.43,-24.05,0,*5A
1491969688.25,21972,12.94,73260.0,-6.41,-23.39,-24.05,0,*54
1491969689.5,21973,12.94,73264.0,-6.41,-23.39,-23.99,0,*57
1491969690.74,21974,12.94,73272.8,-6.41,-23.43,-24.05,0,*5F
1491969691.99,21975,12.94,73278.0,-6.43,-23.49,-24.11,0,*53
1491969693.23,21976,12.94,73272.3,-6.43,-23.49,-24.11,0,*50
1491969694.49,21977,12.94,73274.3,-6.43,-23.49,-24.11,0,*51
1491969695.74,21978,12.94,73274.3,-6.45,-23.43,-23.95,0,*59
1491969696.95,21979,12.94,73276.5,-6.43,-23.43,-24.05,0,*50
1491969698.22,21980,12.94,73274.5,-6.45,-23.33,-23.95,0,*59
1491969699.48,21981,12.94,73264.8,-6.45,-23.49,-24.05,0,*5B
1491969700.71,21982,12.94,73270.5,-6.43,-23.49,-24.05,0,*5E
1491969701.93,21983,12.94,73276.5,-6.43,-23.29,-23.89,0,*5A
1491969703.19,21984,12.94,73270.3,-6.45,-23.19,-23.79,0,*57
1491969704.47,21985,12.94,73268.0,-6.45,-23.19,-23.95,0,*54
1491969705.72,21986,12.94,73274.5,-6.45,-23.29,-24.05,0,*5A
1491969706.95,21987,12.94,73272.5,-6.43,-23.33,-23.89,0,*55
1491969708.22,21988,12.94,73268.5,-6.45,-23.29,-23.95,0,*5A
1491969709.47,21989,12.94,73266.5,-6.45,-23.19,-23.89,0,*55
1491969710.73,21990,12.94,73268.8,-6.45,-23.33,-23.89,0,*55
1491969711.95,21991,12.94,73274.0,-6.45,-23.13,-23.89,0,*56
1491969713.21,21992,12.94,73272.5,-6.45,-23.19,-23.89,0,*5F
1491969714.41,21993,12.94,73278.3,-6.47,-23.13,-23.79,0,*59
1491969715.66,21994,12.94,73272.3,-6.51,-23.23,-23.95,0,*58
1491969716.87,21995,12.94,73272.8,-6.51,-23.13,-23.79,0,*58
1491969718.08,21996,12.94,73268.0,-6.47,-23.13,-23.79,0,*5C
1491969719.31,21997,12.94,73268.5,-6.45,-23.13,-23.75,0,*53
1491969720.54,21998,12.94,73268.0,-6.47,-23.19,-23.89,0,*57
1491969721.77,21999,12.94,73268.3,-6.47,-23.19,-23.89,0,*56
1491969723.0,22000,12.94,73268.5,-6.47,-23.19,-23.75,0,*5F
1491969724.24,22001,12.94,73268.0,-6.45,-23.13,-23.75,0,*56
1491969725.45,22002,12.94,73274.0,-6.51,-22.97,-23.75,0,*5D
1491969726.69,22003,12.94,73274.5,-6.45,-23.09,-23.75,0,*5F
1491969727.94,22004,12.94,73278.0,-6.45,-23.09,-23.65,0,*59
1491969729.17,22005,12.94,73280.3,-6.45,-22.97,-23.59,0,*51
1491969730.41,22006,12.94,73270.8,-6.47,-22.97,-23.65,0,*5F
1491969731.64,22007,12.94,73260.0,-6.45,-23.09,-23.59,0,*55
1491969732.87,22008,12.94,73256.8,-6.45,-22.97,-23.59,0,*5C
1491969734.08,22009,12.94,73264.8,-6.47,-22.97,-23.75,0,*51
1491969735.31,22010,12.94,73266.3,-6.51,-23.13,-23.69,0,*5E
1491969736.54,22011,12.94,73272.3,-6.47,-22.97,-23.65,0,*59
1491969737.8,22012,12.94,73276.5,-6.51,-23.03,-23.65,0,*51
1491969739.01,22013,12.94,73274.3,-6.47,-23.09,-23.79,0,*50
1491969740.24,22014,12.94,73268.3,-6.47,-23.19,-23.79,0,*56
1491969741.49,22015,12.94,73262.0,-6.51,-23.33,-23.95,0,*5A
1491969742.72,22016,12.94,73258.8,-6.47,-23.19,-23.89,0,*5B
1491969743.96,22017,12.94,73256.5,-6.47,-23.19,-23.79,0,*55
1491969745.16,22018,12.94,73254.5,-6.47,-23.13,-23.79,0,*50
1491969746.39,22019,12.94,73246.0,-6.47,-23.19,-23.79,0,*5B
1491969747.65,22020,12.94,73240.3,-6.51,-23.23,-23.85,0,*5C
1491969748.88,22021,12.94,73242.0,-6.47,-23.19,-23.79,0,*50
1491969750.12,22022,12.94,73236.8,-6.47,-23.19,-23.79,0,*53
1491969751.32,22023,12.94,73236.0,-6.47,-23.13,-23.89,0,*57
1491969752.56,22024,12.94,73236.3,-6.47,-23.19,-23.75,0,*59
1491969753.82,22025,12.94,73238.8,-6.51,-23.19,-23.85,0,*50
1491969755.08,22026,12.94,73240.0,-6.51,-23.19,-23.85,0,*53
1491969756.34,22027,12.94,73250.0,-6.51,-23.23,-23.85,0,*5B
1491969757.57,22028,12.94,73256.0,-6.51,-23.23,-23.79,0,*57
1491969758.77,22029,12.94,73252.8,-6.47,-23.13,-23.89,0,*5D
1491969760.02,22030,12.94,73252.3,-6.51,-23.23,-23.95,0,*5C
1491969761.26,22031,12.94,73248.5,-6.51,-23.19,-23.79,0,*56
1491969762.49,22032,12.94,73248.8,-6.47,-23.19,-23.79,0,*52
1491969763.75,22033,12.94,73244.3,-6.51,-23.23,-23.85,0,*5E
1491969764.97,22034,12.94,73248.0,-6.51,-23.13,-23.95,0,*5B
1491969766.2,22035,12.94,73254.5,-6.47,-23.19,-23.89,0,*5A
1491969767.45,22036,12.94,73264.5,-6.51,-23.23,-23.95,0,*5A
1491969768.72,22037,12.94,73266.0,-6.51,-23.03,-23.85,0,*58
1491969769.97,22038,12.94,73256.3,-6.53,-23.23,-23.89,0,*5B
1491969771.2,22039,12.94,73260.3,-6.47,-23.13,-23.85,0,*50
1491969772.43,22040,12.94,73260.5,-6.51,-23.13,-23.95,0,*58
1491969773.66,22041,12.94,73266.8,-6.51,-23.13,-23.95,0,*59
1491969774.91,22042,12.94,73266.0,-6.53,-23.19,-23.89,0,*5F
1491969776.16,22043,12.94,73266.5,-6.53,-23.23,-23.89,0,*57
1491969777.42,22044,12.94,73260.0,-6.53,-23.19,-23.89,0,*59
1491969778.69,22045,12.94,73256.5,-6.53,-23.23,-23.99,0,*50
1491969779.97,22046,12.94,73264.0,-6.53,-23.23,-23.99,0,*53
1491969781.25,22047,12.94,73264.3,-6.53,-23.23,-23.99,0,*52
1491969782.5,22048,12.94,73266.8,-6.53,-23.19,-24.05,0,*56
1491969783.76,22049,12.94,73262.8,-6.53,-23.19,-24.05,0,*57
1491969785.04,22050,12.94,73258.3,-6.53,-23.19,-23.99,0,*5D
1491969786.32,22051,12.94,73252.8,-6.53,-23.19,-23.99,0,*5C
1491969787.6,22052,12.94,73256.5,-6.53,-23.19,-23.99,0,*5F
1491969788.86,22053,12.94,73258.3,-6.55,-23.19,-23.99,0,*58
1491969790.14,22054,12.94,73260.5,-6.53,-23.19,-23.99,0,*59
1491969791.35,22055,12.94,73262.3,-6.55,-23.09,-23.89,0,*5E
1491969792.61,22056,12.94,73260.3,-6.53,-23.09,-23.99,0,*5A
1491969793.86,22057,12.94,73262.3,-6.53,-23.19,-23.89,0,*5B
1491969795.1,22058,12.94,73264.8,-6.55,-23.09,-23.99,0,*52
1491969796.36,22059,12.94,73264.3,-6.55,-23.03,-23.99,0,*59
1491969797.61,22060,12.94,73256.3,-6.55,-23.03,-23.99,0,*53
1491969798.87,22061,12.94,73246.8,-6.55,-23.03,-23.99,0,*52
1491969800.13,22062,12.94,73238.5,-6.53,-23.03,-23.89,0,*56
1491969801.39,22063,12.94,73264.5,-6.55,-23.03,-23.99,0,*50
1491969802.62,22064,12.94,73264.3,-6.55,-23.09,-23.99,0,*5D
1491969803.88,22065,12.94,73266.5,-6.55,-23.03,-23.99,0,*56
1491969805.12,22066,12.94,73262.0,-6.55,-23.03,-24.05,0,*57
1491969806.33,22067,12.94,73264.0,-6.55,-23.09,-24.05,0,*5C
1491969807.55,22068,12.94,73254.8,-6.55,-23.09,-24.05,0,*53
1491969808.8,22069,12.94,73252.3,-6.55,-23.03,-23.99,0,*5A
1491969810.04,22070,12.94,73250.8,-6.55,-23.03,-24.05,0,*50
1491969811.3,22071,12.94,73250.0,-6.57,-22.97,-24.11,0,*5A
1491969812.54,22072,12.94,73252.5,-6.55,-23.03,-24.05,0,*52
1491969813.78,22073,12.94,73258.5,-6.57,-23.09,-24.05,0,*5B
1491969815.01,22074,12.94,73254.0,-6.55,-22.93,-23.99,0,*5E
1491969816.23,22075,12.94,73254.0,-6.55,-22.93,-23.89,0,*5E
1491969817.47,22076,12.94,73262.8,-6.57,-22.97,-24.05,0,*58
1491969818.72,22077,12.94,73260.0,-6.57,-22.97,-23.95,0,*57
1491969819.96,22078,12.94,73266.0,-6.57,-22.97,-24.05,0,*56
1491969821.21,22079,12.94,73266.0,-6.57,-22.93,-24.05,0,*53
1491969822.42,22080,12.94,73274.5,-6.59,-22.93,-24.05,0,*5B
1491969823.66,22081,12.94,73270.8,-6.57,-22.93,-24.05,0,*54
1491969824.9,22082,12.94,73270.8,-6.57,-22.93,-24.05,0,*57
1491969826.12,22083,12.94,73266.3,-6.59,-22.97,-24.05,0,*5C
1491969827.38,22084,12.94,73266.8,-6.57,-22.97,-24.11,0,*50
1491969828.65,22085,12.94,73268.8,-6.57,-22.97,-24.21,0,*52
1491969829.92,22086,12.94,73266.0,-6.57,-22.97,-24.21,0,*51
1491969831.18,22087,12.94,73262.0,-6.57,-22.93,-24.11,0,*57
1491969832.41,22088,12.94,73260.3,-6.59,-22.93,-24.11,0,*56
1491969833.66,22089,12.94,73258.3,-6.59,-22.93,-24.21,0,*54
1491969834.92,22090,12.94,73254.5,-6.57,-22.97,-24.25,0,*52
1491969836.17,22091,12.94,73246.5,-6.59,-22.93,-24.25,0,*59
1491969837.41,22092,12.94,73252.0,-6.59,-22.97,-24.25,0,*5E
1491969838.65,22093,12.94,73248.3,-6.59,-23.09,-24.25,0,*59
1491969839.92,22094,12.94,73240.0,-6.57,-22.93,-24.25,0,*52
1491969841.16,22095,12.94,73238.8,-6.59,-23.09,-24.21,0,*5B
1491969842.4,22096,12.94,73254.3,-6.59,-23.09,-24.25,0,*5C
1491969843.65,22097,12.94,73260.5,-6.59,-22.97,-24.25,0,*5B
1491969844.89,22098,12.94,73254.3,-6.59,-22.93,-24.25,0,*50
1491969846.13,22099,12.94,73264.5,-6.59,-22.93,-24.21,0,*55
1491969847.37,22100,12.94,73268.3,-6.59,-22.83,-24.25,0,*51
1491969848.61,22101,12.94,73262.8,-6.59,-22.83,-24.25,0,*50
1491969849.81,22102,12.94,73264.0,-6.61,-22.87,-24.31,0,*59
1491969851.01,22103,12.94,73268.3,-6.61,-22.83,-24.31,0,*5C
1491969852.22,22104,12.94,73274.5,-6.61,-22.97,-24.31,0,*5E
1491969853.46,22105,12.94,73274.3,-6.59,-22.83,-24.25,0,*54
1491969854.7,22106,12.94,73260.0,-6.59,-22.67,-24.21,0,*59
1491969855.94,22107,12.94,73258.3,-6.59,-22.67,-24.25,0,*5C
1491969857.21,22108,12.94,73258.0,-6.59,-22.77,-24.25,0,*52
1491969858.45,22109,12.94,73258.8,-6.59,-22.67,-24.21,0,*56
1491969859.67,22110,12.94,73252.8,-6.61,-22.73,-24.31,0,*51
1491969860.88,22111,12.94,73254.3,-6.61,-22.83,-24.31,0,*5F
1491969862.15,22112,12.94,73258.8,-6.59,-22.77,-24.25,0,*59
1491969863.41,22113,12.94,73262.5,-6.59,-22.77,-24.41,0,*5A
1491969864.65,22114,12.94,73268.3,-6.59,-22.77,-24.35,0,*5E
1491969865.91,22115,12.94,73244.5,-6.59,-22.77,-24.41,0,*5C
1491969867.15,22116,12.94,73230.8,-6.59,-22.83,-24.41,0,*54
1491969868.38,22117,12.94,73262.8,-6.59,-22.83,-24.41,0,*55
1491969869.6,22118,12.94,73260.5,-6.59,-22.83,-24.47,0,*5C
1491969870.8,22119,12.94,73258.0,-6.61,-22.87,-24.47,0,*52
1491969872.0,22120,12.94,73262.8,-6.61,-22.87,-24.51,0,*5F
1491969873.21,22121,12.94,73262.3,-6.61,-22.97,-24.51,0,*5F
1491969874.42,22122,12.94,73264.5,-6.61,-22.97,-24.61,0,*5F
1491969875.63,22123,12.94,73260.8,-6.61,-22.97,-24.51,0,*5D
1491969876.83,22124,12.94,73264.5,-6.61,-22.83,-24.47,0,*58
1491969878.04,22125,12.94,73266.5,-6.61,-22.87,-24.61,0,*59
1491969879.24,22126,12.94,73270.0,-6.61,-22.87,-24.61,0,*5A
1491969880.47,22127,12.94,73270.3,-6.63,-22.87,-24.61,0,*59
1491969881.7,22128,12.94,73274.8,-6.61,-22.73,-24.51,0,*5C
1491969882.91,22129,12.94,73270.0,-6.61,-22.83,-24.61,0,*51
1491969884.14,22130,12.94,73272.8,-6.63,-22.83,-24.51,0,*58
1491969885.37,22131,12.94,73272.8,-6.61,-22.73,-24.61,0,*57
1491969886.57,22132,12.94,73264.8,-6.61,-22.67,-24.47,0,*55
1491969887.83,22133,12.94,73270.3,-6.63,-22.73,-24.47,0,*53
1491969889.03,22134,12.94,73272.5,-6.61,-22.67,-24.51,0,*54
1491969890.24,22135,12.94,73276.0,-6.61,-22.67,-24.51,0,*55
1491969891.47,22136,12.94,73264.8,-6.63,-22.67,-24.51,0,*54
1491969892.7,22137,12.94,73264.5,-6.63,-22.67,-24.61,0,*56
1491969893.98,22138,12.94,73266.8,-6.63,-22.73,-24.67,0,*5A
1491969895.25,22139,12.94,73270.0,-6.63,-22.73,-24.67,0,*5B
1491969896.51,22140,12.94,73266.3,-6.63,-22.57,-24.67,0,*53
1491969897.72,22141,12.94,73268.0,-6.61,-22.57,-24.51,0,*55
1491969898.98,22142,12.94,73270.3,-6.63,-22.41,-24.41,0,*52
1491969900.19,22143,12.94,73272.0,-6.61,-22.53,-24.51,0,*53
1491969901.44,22144,12.94,73274.8,-6.63,-22.41,-24.41,0,*54
1491969902.72,22145,12.94,73276.5,-6.63,-22.31,-24.41,0,*52
1491969903.96,22146,12.94,73280.5,-6.63,-22.37,-24.47,0,*51
1491969905.21,22147,12.94,73280.0,-6.61,-22.31,-24.41,0,*52
1491969906.5,22148,12.94,73276.8,-6.63,-22.21,-24.41,0,*5E
1491969907.73,22149,12.94,73280.8,-6.61,-22.37,-24.41,0,*5A
1491969908.97,22150,12.94,73274.5,-6.59,-22.17,-24.35,0,*58
1491969910.2,22151,12.94,73276.0,-6.59,-22.31,-24.57,0,*59
1491969911.44,22152,12.94,73274.5,-6.59,-22.47,-24.57,0,*5B
1491969912.68,22153,12.94,73276.0,-6.59,-22.47,-24.61,0,*5F
1491969913.95,22154,12.94,73272.3,-6.59,-22.47,-24.71,0,*59
1491969915.22,22155,12.94,73270.8,-6.59,-22.47,-24.71,0,*58
1491969916.44,22156,12.94,73260.5,-6.59,-22.53,-24.77,0,*58
1491969917.65,22157,12.94,73262.3,-6.59,-22.63,-24.77,0,*5A
1491969918.85,22158,12.94,73264.0,-6.59,-22.63,-24.77,0,*55
1491969920.09,22159,12.94,73260.8,-6.59,-22.63,-24.87,0,*5B
1491969921.29,22160,12.94,73258.5,-6.61,-22.67,-24.93,0,*5B
1491969922.5,22161,12.94,73254.0,-6.61,-22.83,-24.97,0,*54
1491969923.72,22162,12.94,73258.5,-6.61,-22.73,-24.97,0,*58
1491969924.96,22163,12.94,73256.5,-6.61,-22.73,-25.09,0,*5F
1491969926.19,22164,12.94,73256.3,-6.61,-22.73,-25.09,0,*58
1491969927.39,22165,12.94,73260.0,-6.61,-22.67,-24.97,0,*5A
1491969928.61,22166,12.94,73258.0,-6.61,-22.57,-25.09,0,*5C
1491969929.87,22167,12.94,73258.8,-6.63,-22.73,-25.09,0,*59
1491969931.1,22168,12.94,73258.5,-6.61,-22.73,-25.09,0,*54
1491969932.33,22169,12.94,73258.8,-6.61,-22.73,-25.23,0,*5D
1491969933.57,22170,12.94,73256.0,-6.63,-22.83,-25.13,0,*5B
1491969934.78,22171,12.94,73258.3,-6.61,-22.83,-25.13,0,*58
1491969935.98,22172,12.94,73256.8,-6.61,-22.83,-25.23,0,*58
1491969937.19,22173,12.94,73258.3,-6.61,-22.83,-25.23,0,*59
1491969938.39,22174,12.94,73256.5,-6.61,-22.83,-25.23,0,*5E
1491969939.6,22175,12.94,73262.0,-6.61,-22.83,-25.23,0,*5F
1491969940.83,22176,12.94,73266.8,-6.61,-22.73,-25.23,0,*53
1491969942.08,22177,12.94,73264.8,-6.63,-22.73,-25.13,0,*53
1491969943.29,22178,12.94,73266.5,-6.61,-22.83,-25.23,0,*52
1491969944.55,22179,12.94,73266.3,-6.63,-22.83,-25.29,0,*5B
1491969945.81,22180,12.94,73268.3,-6.63,-22.83,-25.29,0,*5D
1491969947.04,22181,12.94,73276.3,-6.61,-22.87,-25.29,0,*5A
1491969948.28,22182,12.94,73272.5,-6.63,-22.97,-25.39,0,*5B
1491969949.54,22183,12.94,73262.5,-6.63,-23.03,-25.61,0,*5B
1491969950.79,22184,12.94,73260.5,-6.63,-22.97,-25.49,0,*5A
1491969952.0,22185,12.94,73252.8,-6.61,-22.83,-25.49,0,*5C
1491969953.23,22186,12.94,73248.8,-6.63,-22.87,-25.39,0,*5E
1491969954.49,22187,12.94,73246.5,-6.63,-22.83,-25.29,0,*5A
1491969955.75,22188,12.94,73250.0,-6.63,-22.83,-25.29,0,*55
1491969957.01,22189,12.94,73250.8,-6.63,-22.73,-25.39,0,*5A
1491969958.25,22190,12.94,73254.3,-6.63,-22.83,-25.39,0,*5D
1491969959.53,22191,12.94,73258.0,-6.63,-22.73,-25.29,0,*52
1491969960.74,22192,12.94,73254.8,-6.61,-22.83,-25.39,0,*5D
1491969961.98,22193,12.94,73252.0,-6.65,-22.77,-25.35,0,*5F
1491969963.24,22194,12.94,73254.8,-6.65,-22.77,-25.45,0,*5F
1491969964.45,22195,12.94,73256.5,-6.65,-22.63,-25.35,0,*5C
1491969965.71,22196,12.94,73252.0,-6.65,-22.47,-25.03,0,*5C
1491969966.94,22197,12.94,73256.8,-6.65,-22.41,-25.03,0,*5B
1491969968.16,22198,12.94,73260.5,-6.61,-22.37,-25.09,0,*5B
1491969969.39,22199,12.94,73270.3,-6.63,-22.57,-25.23,0,*56
1491969970.63,22200,12.94,73260.5,-6.63,-22.41,-25.23,0,*52
1491969971.86,22201,12.94,73252.3,-6.63,-22.53,-25.23,0,*50
1491969973.07,22202,12.94,73258.3,-6.61,-22.57,-25.23,0,*55
1491969974.28,22203,12.94,73258.5,-6.61,-22.41,-25.23,0,*53
1491969975.51,22204,12.94,73260.3,-6.63,-22.41,-25.13,0,*55
1491969976.72,22205,12.94,73260.8,-6.61,-22.53,-25.23,0,*56
1491969977.96,22206,12.94,73260.0,-6.63,-22.57,-25.39,0,*58
1491969979.18,22207,12.94,73258.3,-6.61,-22.57,-25.39,0,*5B
1491969980.44,22208,12.94,73258.8,-6.63,-22.67,-25.29,0,*54
1491969981.67,22209,12.94,73262.0,-6.61,-22.57,-25.29,0,*54
1491969982.89,22210,12.94,73258.0,-6.61,-22.83,-25.61,0,*59
1491969984.1,22211,12.94,73254.8,-6.61,-22.83,-25.65,0,*5C
1491969985.31,22212,12.94,73252.8,-6.61,-22.87,-25.65,0,*5B
1491969986.54,22213,12.94,73254.8,-6.61,-22.87,-25.75,0,*5B
1491969987.78,22214,12.94,73256.8,-6.63,-22.97,-25.65,0,*5E
1491969989.04,22215,12.94,73258.3,-6.61,-23.03,-25.75,0,*50
1491969990.28,22216,12.94,73252.8,-6.61,-22.97,-25.75,0,*5F
1491969991.57,22217,12.94,73256.5,-6.63,-23.03,-25.81,0,*5B
1491969992.8,22218,12.94,73258.3,-6.63,-23.13,-25.91,0,*54
1491969994.06,22219,13.0,73246.0,-6.63,-23.13,-25.81,0,*54
1491969995.32,22220,12.94,73234.8,-6.63,-23.03,-25.91,0,*5E
1491969996.58,22221,12.94,73236.5,-6.63,-23.13,-25.81,0,*5F
1491969997.78,22222,12.94,73252.3,-6.61,-23.13,-25.91,0,*5F
1491969999.05,22223,12.94,73274.5,-6.63,-23.13,-25.97,0,*5A
1491970000.31,22224,12.94,73272.5,-6.63,-23.13,-25.97,0,*5D
1491970001.57,22225,13.0,73262.8,-6.63,-22.97,-25.81,0,*56
1491970002.83,22226,13.0,73248.5,-6.63,-22.97,-25.81,0,*55
1491970004.07,22227,12.94,73234.5,-6.63,-23.13,-25.91,0,*58
1491970005.3,22228,12.94,73248.3,-6.63,-23.13,-25.91,0,*57
1491970006.56,22229,12.94,73228.3,-6.63,-23.13,-25.97,0,*50
1491970007.85,22230,12.94,73240.5,-6.63,-23.03,-25.97,0,*59
1491970009.09,22231,12.94,73242.8,-6.65,-23.19,-26.03,0,*5B
1491970010.36,22232,13.0,73248.5,-6.65,-23.23,-25.97,0,*5F
1491970011.62,22233,12.94,73228.0,-6.65,-23.23,-26.13,0,*51
1491970012.9,22234,12.94,73236.5,-6.63,-23.29,-25.97,0,*55
1491970014.16,22235,12.94,73244.8,-6.65,-23.23,-26.13,0,*57
1491970015.4,22236,12.94,73250.5,-6.65,-23.33,-26.03,0,*54
1491970016.64,22237,12.94,73246.0,-6.65,-23.23,-26.03,0,*54
1491970017.9,22238,13.0,73250.3,-6.65,-23.23,-26.13,0,*5A
1491970019.16,22239,12.94,73252.5,-6.65,-23.23,-26.13,0,*5B
1491970020.43,22240,12.94,73256.0,-6.67,-23.23,-26.03,0,*56
1491970021.67,22241,13.0,73254.8,-6.65,-23.19,-26.03,0,*5C
1491970022.93,22242,12.94,73264.0,-6.65,-23.23,-26.13,0,*57
1491970024.17,22243,12.94,73276.0,-6.65,-23.23,-26.03,0,*57
1491970025.44,22244,12.94,73282.3,-6.67,-23.09,-25.81,0,*53
1491970026.68,22245,12.94,73266.8,-6.67,-22.93,-25.65,0,*5A
1491970027.95,22246,12.94,73260.3,-6.67,-22.93,-25.81,0,*53
1491970029.21,22247,13.0,73258.3,-6.63,-22.67,-25.29,0,*5F
1491970030.44,22248,12.94,73246.5,-6.63,-22.67,-25.39,0,*51
1491970031.71,22249,12.94,73242.8,-6.63,-22.97,-25.75,0,*57
1491970032.94,22250,12.94,73226.3,-6.63,-23.13,-25.91,0,*58
1491970034.18,22251,12.94,73218.5,-6.63,-23.13,-25.91,0,*59
1491970035.46,22252,13.0,73184.5,-6.63,-23.29,-25.97,0,*55
1491970036.72,22253,12.94,73174.5,-6.63,-23.29,-26.07,0,*5E
1491970037.98,22254,12.94,73214.3,-6.63,-23.33,-26.07,0,*52
1491970039.25,22255,13.0,73224.0,-6.65,-23.33,-26.13,0,*50
1491970040.5,22256,13.0,73220.3,-6.65,-23.33,-26.17,0,*57
1491970041.73,22257,12.94,73228.0,-6.65,-23.39,-26.17,0,*5C
1491970042.98,22258,12.94,73244.5,-6.65,-23.43,-26.13,0,*5A
1491970044.22,22259,12.94,73248.3,-6.65,-23.23,-26.03,0,*5C
1491970045.46,22260,12.94,73240.3,-6.65,-23.43,-26.13,0,*51
1491970046.73,22261,12.94,73260.0,-6.67,-23.43,-26.13,0,*52
1491970047.96,22262,12.94,73252.0,-6.67,-23.39,-26.03,0,*5D
1491970049.2,22263,13.0,73250.3,-6.65,-23.43,-26.17,0,*56
1491970050.44,22264,12.94,73288.0,-6.65,-23.43,-26.17,0,*51
1491970051.67,22265,12.94,73276.0,-6.65,-23.39,-26.13,0,*59
1491970052.89,22266,13.0,73262.5,-6.65,-23.43,-26.03,0,*56
1491970054.1,22267,12.94,73240.8,-6.65,-23.39,-26.03,0,*5A
1491970055.33,22268,12.94,73244.8,-6.63,-23.39,-26.07,0,*57
1491970056.56,22269,12.94,73258.5,-6.63,-23.39,-26.07,0,*56
1491970057.81,22270,12.94,73258.0,-6.65,-23.43,-26.13,0,*50
1491970059.05,22271,12.94,73248.8,-6.65,-23.53,-26.03,0,*51
1491970060.28,22272,12.94,73260.0,-6.65,-23.39,-25.97,0,*50
1491970061.54,22273,12.94,73254.8,-6.67,-23.33,-25.87,0,*58
1491970062.8,22274,12.94,73256.0,-6.67,-23.39,-25.97,0,*54
1491970064.02,22275,13.0,73266.3,-6.65,-23.43,-26.03,0,*54
1491970065.29,22276,12.94,73260.0,-6.67,-23.43,-25.97,0,*5B
1491970066.54,22277,13.0,73264.3,-6.65,-23.43,-25.97,0,*58
1491970067.78,22278,13.0,73264.8,-6.65,-23.53,-26.03,0,*58
1491970069.07,22279,12.94,73264.3,-6.63,-23.49,-25.97,0,*5A
1491970070.33,22280,12.94,73254.8,-6.63,-23.53,-26.07,0,*5D
1491970071.6,22281,13.0,73252.0,-6.63,-23.53,-26.07,0,*5C
1491970072.81,22282,12.94,73250.0,-6.65,-23.59,-26.03,0,*57
1491970074.05,22283,12.94,73248.8,-6.65,-23.59,-26.13,0,*57
1491970075.29,22284,13.0,73250.5,-6.65,-23.75,-26.17,0,*5A
1491970076.53,22285,13.0,73258.8,-6.65,-23.75,-26.17,0,*5B
1491970077.8,22286,12.94,73254.5,-6.65,-23.53,-25.97,0,*57
1491970079.1,22287,13.0,73252.8,-6.67,-23.53,-25.97,0,*54
1491970080.34,22288,12.94,73252.5,-6.67,-23.43,-25.87,0,*5B
1491970081.58,22289,12.94,73246.5,-6.65,-23.43,-25.97,0,*59
1491970082.83,22290,12.94,73248.5,-6.63,-23.39,-25.81,0,*5D
1491970084.07,22291,12.94,73256.5,-6.65,-23.39,-25.71,0,*55
1491970085.31,22292,12.94,73254.0,-6.65,-23.43,-25.81,0,*54
1491970086.54,22293,13.0,73258.3,-6.63,-23.39,-25.65,0,*54
1491970087.81,22294,12.94,73254.3,-6.65,-23.53,-25.71,0,*5C
1491970089.05,22295,12.94,73254.0,-6.65,-23.43,-25.81,0,*53
1491970090.34,22296,12.94,73242.5,-6.63,-23.53,-25.81,0,*57
1491970091.62,22297,12.94,73246.3,-6.63,-23.65,-25.81,0,*53
1491970092.9,22298,12.94,73250.0,-6.63,-23.69,-25.97,0,*57
1491970094.18,22299,12.94,73242.8,-6.63,-23.69,-25.97,0,*56
1491970095.44,22300,13.0,73242.8,-6.63,-23.85,-26.07,0,*5F
1491970096.73,22301,13.0,73244.0,-6.63,-23.85,-25.97,0,*54